Regional Weather Roundup
Issued by NWS Goodland, KS

Home | Current Version | Previous Version | Graphics & Text | Print | Product List | Glossary On
Versions: 1 2 3 4 5 6 7 8 9 10 11 12 13 14 15 16 17 18 19 20 21 22 23 24 25 26 27 28 29 30 31 32 33 34 35 36 37 38 39 40 41 42 43 44 45 46 47 48 49 50
000
ASUS43 KGLD 221208
RWRGLD

GOODLAND FORECAST AREA HOURLY WEATHER ROUNDUP
NATIONAL WEATHER SERVICE GOODLAND KS
600 AM MDT WED OCT 22 2014

...OFFICIAL OBSERVATIONS...

CITY           SKY/WX    TMP DP  RH WIND       PRES   REMARKS
GOODLAND KS    PTCLDY    52  47  83 S9        29.98R
HILL CITY KS   PTCLDY    58  50  75 S6        30.00R
IMPERIAL NEB   MOCLDY    54  45  71 N7        29.95R
MCCOOK NEB     MOCLDY    57  49  74 W3        29.95R
AKRON CO       CLOUDY    52  46  80 NW9       30.01R
BURLINGTON CO  MOCLDY    55  44  66 N6        29.98R
LIMON CO       MOCLDY    47  42  83 W8        30.06R
$$

...UNOFFICIAL OBSERVATIONS...

CITY           SKY/WX    TMP DP  RH WIND       PRES   REMARKS
COLBY KS       CLEAR     55  52  88 S8        29.98S
GOVE KS          N/A     56  32  40 MISG        N/A
NORTON KS      CLEAR     55  46  71 S12       29.96S
SHARON SPRINGS   N/A     51  48  90 S9          N/A
TRENTON NEB      N/A     58  32  37 SW7         N/A
KIT CARSON CO    N/A     48  44  86 CALM        N/A
YUMA CO          N/A     51  44  76 CALM        N/A
$$



USA.gov is the U.S. government's official web portal to all federal, state and local government web resources and services.